sat.trackr.live / text

‹ back to catalog

ONEWEB-0026

NORAD 45139 · 2020-008J

PAYLOAD ACTIVE UNKNOWN

§ Identity

Operator
Country
UK
Launch date
2020-02-06
Launch site
TYMSC
Launch vehicle
Mass (kg)
RCS (m²)

Purposes: comms

External: N2YO · Heavens-Above · Gunter

§ Orbital elements

Epoch: 2026-05-25T02:48:23.903712Z

Period
109.80 min
Inclination
87.8915°
Eccentricity
0.0001641
Mean motion
13.11416453 rev/d
Perigee alt
1,216.4 km
Apogee alt
1,218.9 km
Semi-major
7,595.8 km
B*
1.7902e-3
RAAN
25.6587°
Arg perigee
82.8182°
Mean anomaly
277.3133°
Rev number
30,808

§ Raw data

ONEWEB-00261 45139U 20008J   26145.11694333  .00000647  00000+0  17902-2 0  99972 45139  87.8915  25.6587 0001641  82.8182 277.3133 13.11416453308080

JSON: /api/v1/satellites/45139 · /tle

For live sub-satellite position, see the globe view (requires WebGL).

§ Visibility from observer

Set your observer location to see the next 7 days of passes ≥ 10°. The values pass through the URL so the page stays shareable.

No JS? Fill the form by hand. The geolocation button needs JavaScript.